GW4654 Weather Reports


time (UTC)temp
F
wind
direction
speed
knots
gust
knots
rain 1hr
in
rain 24hr
in
rain mn
in
humidity
%
barometer
mb
20260509185507 63 246 0.0 1.7 0.00 0.17 0.17 76 1008.5
20260509185004 62 230 0.0 1.7 0.00 0.17 0.17 77 1008.4
20260509184503 62 257 0.0 2.6 0.00 0.17 0.17 76 1008.5
20260509183959 61 255 0.0 2.6 0.00 0.17 0.17 76 1008.8
20260509183458 62 214 0.9 5.2 0.00 0.17 0.17 76 1008.6
20260509182955 61 228 0.9 2.6 0.00 0.17 0.17 79 1008.8
20260509182451 62 207 0.0 1.7 0.00 0.17 0.17 80 1008.8
20260509181949 62 210 0.0 1.7 0.00 0.17 0.17 78 1008.8
20260509181447 61 224 0.0 5.2 0.00 0.17 0.17 82 1008.9
20260509180944 59 202 0.0 3.5 0.00 0.17 0.17 82 1008.8
20260509180439 59 267 0.9 1.7 0.00 0.17 0.17 82 1008.8
20260509175936 60 225 1.7 1.7 0.00 0.17 0.17 81 1008.8
20260509175433 59 225 0.0 0.0 0.00 0.17 0.17 84 1008.6
20260509174929 58 247 0.0 0.0 0.00 0.17 0.17 86 1008.5
20260509174425 57 247 0.0 0.0 0.00 0.17 0.17 86 1008.8
20260509173921 58 246 0.0 0.0 0.00 0.17 0.17 85 1008.6
20260509173420 58 246 0.0 0.9 0.00 0.17 0.17 86 1008.4
20260509172917 59 246 0.9 0.9 0.00 0.17 0.17 85 1008.6
20260509172414 59 237 0.9 1.7 0.00 0.17 0.17 83 1008.6
20260509171910 59 229 0.0 0.0 0.00 0.17 0.17 84 1008.8
20260509171406 58 229 0.0 0.9 0.00 0.17 0.17 85 1008.8
20260509170903 58 230 1.7 2.6 0.00 0.17 0.17 85 1008.8
20260509170358 58 219 1.7 1.7 0.00 0.17 0.17 86 1008.8
20260509165854 58 220 0.9 3.5 0.00 0.17 0.17 86 1008.8
20260509165348 59 239 0.0 1.7 0.00 0.17 0.17 87 1008.5
20260509164839 58 253 0.9 2.6 0.00 0.17 0.17 84 1008.3
20260509164335 58 256 2.6 5.2 0.00 0.17 0.17 87 1008.5
20260509163832 57 250 1.7 3.5 0.00 0.17 0.17 89 1008.8
20260509163328 57 240 0.9 0.9 0.00 0.17 0.17 94 1008.8
20260509162828 57 211 0.0 2.6 0.00 0.17 0.17 93 1008.5
20260509162326 56 256 1.7 5.2 0.00 0.17 0.17 94 1008.6
20260509161822 56 236 0.0 0.0 0.00 0.17 0.17 94 1008.5
20260509161319 55 237 0.0 2.6 0.00 0.17 0.17 95 1008.4
20260509160814 55 234 0.0 0.0 0.00 0.17 0.17 97 1008.6
20260509160310 55 232 0.0 0.9 0.00 0.17 0.17 98 1008.6
20260509155806 54 241 0.0 0.0 0.00 0.17 0.17 99 1008.5
20260509155306 54 240 0.0 0.9 0.00 0.17 0.17 99 1008.6
20260509154758 53 234 0.0 0.0 0.00 0.17 0.17 99 1008.6
20260509154256 53 228 0.0 0.0 0.00 0.17 0.17 99 1008.8
20260509153752 53 228 0.0 0.0 0.00 0.17 0.17 99 1008.5
20260509153248 53 228 0.0 0.0 0.07 0.17 0.17 99 1008.8
20260509152745 53 228 0.0 0.0 0.07 0.17 0.17 99 1008.5
20260509152242 53 233 0.0 0.0 0.00 0.16 0.16 99 1008.6
20260509151739 53 232 0.0 0.0 0.07 0.16 0.16 99 1008.6
20260509151235 52 246 0.0 0.0 0.12 0.16 0.16 99 1008.8
20260509150734 52 242 0.0 0.0 0.12 0.15 0.15 99 1008.8
20260509150232 52 246 0.0 0.9 0.07 0.14 0.14 99 1008.5
20260509145729 52 249 0.0 1.7 0.00 0.13 0.13 99 1008.5
20260509145228 52 206 0.9 2.6 0.00 0.13 0.13 99 1008.8
20260509144725 52 231 0.0 0.0 0.00 0.13 0.13 99 1008.8
20260509144222 52 234 0.0 0.0 0.00 0.13 0.13 99 1008.8
20260509143719 52 227 0.9 0.9 0.00 0.13 0.13 99 1008.6
20260509143217 52 245 0.0 0.0 0.00 0.13 0.13 99 1008.8
20260509142712 52 247 0.0 1.7 0.05 0.13 0.13 99 1008.6
20260509142209 52 238 0.0 1.7 0.00 0.12 0.12 99 1008.8
20260509141704 51 246 0.0 0.0 0.00 0.12 0.12 99 1008.4
20260509141202 51 228 0.0 0.0 0.00 0.12 0.12 99 1008.8
20260509140658 51 233 0.9 0.9 0.00 0.12 0.12 99 1008.8
20260509140156 51 227 0.0 0.9 0.00 0.12 0.12 99 1008.8
20260509135653 51 235 0.0 0.0 0.00 0.12 0.12 99 1009.0
20260509135151 51 233 0.0 0.0 0.00 0.12 0.12 99 1008.8
20260509134647 51 229 0.0 0.0 0.00 0.12 0.12 99 1008.8
20260509134145 51 241 0.0 0.0 0.00 0.12 0.12 99 1008.8
20260509133642 51 232 0.0 0.0 0.07 0.12 0.12 99 1008.8
20260509133139 51 233 0.0 0.0 0.12 0.12 0.12 99 1008.8
20260509132637 51 233 0.0 0.0 0.17 0.11 0.11 99 1009.0
20260509132135 51 233 0.0 0.0 0.19 0.10 0.10 99 1009.2
20260509131631 51 232 0.0 0.0 0.12 0.08 0.08 99 1009.0
20260509131128 51 234 0.0 0.0 0.05 0.07 0.07 99 1009.0
20260509130624 51 229 0.0 0.0 0.07 0.06 0.06 99 1009.0
20260509130121 51 243 0.9 1.7 0.07 0.06 0.06 99 1009.0
20260509125617 51 227 0.0 0.0 0.00 0.05 0.05 99 1009.0
20260509125114 51 227 0.0 0.9 0.00 0.05 0.05 99 1009.1
20260509124610 51 244 0.0 0.0 0.00 0.05 0.05 99 1008.9
20260509124108 51 232 0.0 0.0 0.00 0.05 0.05 99 1008.9
20260509123606 51 230 0.0 0.9 0.00 0.05 0.05 99 1009.0
20260509123102 51 245 0.0 0.0 0.00 0.05 0.05 99 1009.1
20260509122558 50 223 0.0 0.0 0.07 0.05 0.05 99 1009.0
20260509122055 50 223 0.0 0.0 0.07 0.05 0.05 99 1009.1
20260509121552 50 223 0.0 0.0 0.00 0.04 0.04 99 1009.2
20260509121049 50 223 0.0 0.0 0.00 0.04 0.04 99 1009.1
20260509120547 50 222 0.0 0.9 0.05 0.04 0.04 99 1009.2
20260509120046 50 223 0.0 0.0 0.12 0.04 0.04 99 1009.1
20260509115542 50 223 0.0 0.0 0.07 0.03 0.03 99 1009.0
20260509115040 50 223 0.0 0.0 0.00 0.02 0.02 99 1009.2
20260509114538 50 222 0.0 0.0 0.05 0.02 0.02 99 1009.1
20260509114037 49 243 0.0 0.0 0.05 0.02 0.02 99 1008.8
20260509113534 49 243 0.0 0.0 0.00 0.01 0.01 99 1009.1
20260509113032 49 243 0.0 0.0 0.00 0.01 0.01 99 1009.1
20260509112528 49 243 0.0 0.0 0.00 0.01 0.01 99 1009.0
20260509112025 49 243 0.0 0.0 0.00 0.01 0.01 99 1008.9
20260509111522 49 243 0.0 0.0 0.00 0.01 0.01 99 1008.9
20260509111019 49 243 0.0 0.0 0.00 0.01 0.01 99 1009.1
20260509110516 48 243 0.0 0.0 0.00 0.01 0.01 99 1008.8
20260509110013 48 243 0.0 0.0 0.00 0.01 0.01 99 1008.9
20260509105511 48 243 0.0 0.0 0.00 0.01 0.01 99 1008.9
20260509105009 48 243 0.0 0.0 0.00 0.01 0.01 99 1009.0
20260509104505 48 243 0.0 0.0 0.00 0.01 0.01 99 1009.0
20260509104002 48 243 0.0 0.0 0.00 0.01 0.01 99 1008.8
20260509103500 48 243 0.0 0.0 0.00 0.01 0.01 99 1009.0
20260509102958 48 243 0.0 0.0 0.00 0.01 0.01 99 1009.0
20260509102455 48 243 0.0 0.0 0.00 0.01 0.01 99 1009.1
20260509101951 48 243 0.0 0.0 0.00 0.01 0.01 99 1008.9
20260509101448 47 243 0.0 0.0 0.00 0.01 0.01 99 1008.8
20260509100945 47 243 0.0 0.0 0.00 0.01 0.01 99 1008.9
20260509100442 47 243 0.0 0.0 0.00 0.01 0.01 99 1008.9
20260509095939 47 243 0.0 0.0 0.00 0.01 0.01 99 1008.6
20260509095436 47 243 0.0 0.0 0.00 0.01 0.01 99 1009.0
20260509094933 47 243 0.0 0.0 0.00 0.01 0.01 99 1009.2
20260509094429 47 243 0.0 0.0 0.00 0.01 0.01 99 1009.1
20260509093927 47 243 0.0 0.0 0.00 0.01 0.01 99 1009.4
20260509093424 47 243 0.0 0.0 0.00 0.01 0.01 99 1009.3
20260509092923 47 243 0.0 0.0 0.00 0.01 0.01 99 1009.3
20260509092420 47 243 0.0 0.0 0.00 0.01 0.01 99 1009.2
20260509091919 47 243 0.0 0.0 0.00 0.01 0.01 99 1009.4
20260509091415 47 243 0.0 0.0 0.00 0.01 0.01 99 1009.4
20260509090912 47 243 0.0 0.0 0.00 0.01 0.01 99 1009.5
20260509090409 47 243 0.0 0.0 0.00 0.01 0.01 99 1009.3
20260509085907 47 243 0.0 0.0 0.00 0.01 0.01 99 1009.3
20260509085404 47 243 0.0 0.0 0.00 0.01 0.01 99 1009.4
20260509084900 47 243 0.0 0.0 0.00 0.01 0.01 99 1009.4
20260509084357 47 243 0.0 0.0 0.00 0.01 0.01 99 1009.4
20260509083855 47 243 0.0 0.0 0.00 0.01 0.01 99 1009.6
20260509083351 47 243 0.0 0.0 0.00 0.01 0.01 99 1009.4
20260509082848 47 243 0.0 0.0 0.00 0.01 0.01 99 1009.3
20260509082345 47 243 0.0 0.0 0.00 0.01 0.01 99 1009.3
20260509081842 47 243 0.0 0.0 0.00 0.01 0.01 99 1009.2
20260509081339 47 243 0.0 0.0 0.00 0.01 0.01 99 1009.2
20260509080837 47 243 0.0 0.0 0.00 0.01 0.01 99 1009.3
20260509080335 47 243 0.0 0.0 0.00 0.01 0.01 99 1009.4
20260509075833 47 243 0.0 0.0 0.00 0.01 0.01 99 1009.4
20260509075330 47 243 0.0 0.0 0.00 0.01 0.01 99 1009.4
20260509074827 47 243 0.0 0.0 0.00 0.01 0.01 99 1009.3
20260509074324 47 243 0.0 0.0 0.00 0.01 0.01 99 1009.5
20260509073820 47 243 0.0 0.0 0.00 0.01 0.01 99 1009.4
20260509073317 47 243 0.0 0.0 0.00 0.01 0.01 99 1009.5
20260509072814 48 243 0.0 0.0 0.00 0.01 0.01 99 1009.6
20260509072310 48 243 0.0 0.0 0.00 0.01 0.01 99 1009.6
20260509071807 48 243 0.0 0.0 0.00 0.01 0.01 99 1009.4
20260509071304 48 243 0.0 0.0 0.00 0.01 0.01 99 1009.3
20260509070801 48 247 0.0 0.0 0.00 0.01 0.01 99 1009.4
20260509070257 48 248 0.0 0.0 0.00 0.01 0.01 99 1009.3
20260509065754 48 248 0.0 0.0 0.00 0.01 0.01 99 1009.3
20260509065250 48 248 0.0 0.0 0.00 0.01 0.01 99 1009.3
20260509064746 48 248 0.0 0.0 0.00 0.01 0.01 99 1009.4
20260509064244 48 236 0.0 0.0 0.00 0.01 0.01 99 1009.6
20260509063741 48 236 0.0 0.0 0.00 0.01 0.01 99 1009.7
20260509063237 48 236 0.0 0.0 0.00 0.01 0.01 99 1009.6
20260509062735 48 236 0.0 0.0 0.00 0.01 0.01 99 1009.6
20260509062232 48 236 0.0 0.0 0.00 0.01 0.01 99 1009.8
20260509061729 48 236 0.0 0.0 0.00 0.01 0.01 99 1010.1
20260509061227 48 236 0.0 0.0 0.00 0.01 0.01 99 1010.1
20260509060724 48 236 0.0 0.0 0.00 0.01 0.01 99 1010.2
20260509060220 48 236 0.0 0.0 0.00 0.01 0.01 99 1010.3
20260509055716 48 236 0.0 0.0 0.00 0.01 0.01 99 1010.1
20260509055212 48 236 0.0 0.0 0.00 0.01 0.01 99 1010.1
20260509054708 48 236 0.0 0.0 0.00 0.01 0.01 99 1010.2
20260509054206 48 236 0.0 0.0 0.00 0.01 0.01 99 1010.3
20260509053704 48 236 0.0 0.0 0.00 0.01 0.01 99 1010.4
20260509053201 48 236 0.0 0.0 0.00 0.01 0.01 99 1010.5
20260509052659 48 236 0.0 0.0 0.00 0.01 0.01 99 1010.6
20260509052156 48 236 0.0 0.0 0.00 0.01 0.01 99 1010.5
20260509051654 48 236 0.0 0.0 0.00 0.01 0.01 99 1010.5
20260509051151 48 236 0.0 0.0 0.00 0.01 0.01 99 1010.4
20260509050648 48 236 0.0 0.0 0.00 0.01 0.01 99 1010.6
20260509050144 48 236 0.0 0.0 0.00 0.01 0.01 99 1010.6
20260509045642 48 236 0.0 0.0 0.00 0.01 0.01 99 1010.6
20260509045138 48 236 0.0 0.0 0.00 0.01 0.01 99 1010.6
20260509044636 48 236 0.0 0.0 0.00 0.01 0.01 99 1010.9
20260509044133 48 236 0.9 0.9 0.00 0.01 0.01 99 1010.9
20260509043629 48 233 0.0 0.0 0.00 0.01 0.01 99 1011.0
20260509043125 48 233 0.0 0.0 0.00 0.01 0.01 99 1011.2
20260509042622 48 233 0.0 0.0 0.00 0.01 0.01 99 1011.2
20260509042118 48 233 0.0 0.0 0.00 0.01 0.01 99 1011.1
20260509041615 48 233 0.0 0.9 0.07 0.01 0.01 99 1011.2
20260509041112 48 233 0.0 0.0 0.07 0.01 0.01 99 1011.5
20260509040611 48 232 0.0 0.0 0.00 0.00 0.00 99 1011.5
20260509040107 48 232 0.0 0.0 0.00 0.00 0.00 99 1011.7
20260509035604 48 232 0.0 0.0 0.00 0.10 0.10 99 1011.6
20260509035100 48 232 0.0 0.0 0.00 0.10 0.10 99 1011.6
20260509034559 48 232 0.0 0.0 0.00 0.10 0.10 99 1011.6
20260509034055 48 232 0.0 0.0 0.00 0.10 0.10 99 1011.7
20260509033552 48 232 0.0 0.0 0.00 0.10 0.10 99 1012.0
20260509033049 48 232 0.0 0.0 0.00 0.10 0.10 99 1012.2
20260509032547 48 232 0.0 0.0 0.00 0.10 0.10 99 1012.1
20260509032043 48 232 0.0 0.0 0.00 0.10 0.10 99 1012.2
20260509031541 48 232 0.0 0.0 0.00 0.10 0.10 99 1012.1
20260509031038 48 232 0.0 0.0 0.05 0.10 0.10 99 1012.3
20260509030537 48 232 0.0 0.0 0.05 0.10 0.10 99 1012.3
20260509030033 48 232 0.0 0.0 0.00 0.09 0.09 99 1012.4
20260509025529 48 232 0.0 0.0 0.00 0.09 0.09 99 1012.5
20260509025025 48 232 0.0 0.0 0.07 0.09 0.09 99 1012.5
20260509024521 48 232 0.0 0.0 0.07 0.09 0.09 99 1012.4
20260509024017 49 232 0.0 0.9 0.00 0.08 0.08 99 1012.4
20260509023515 48 232 0.0 0.0 0.00 0.08 0.08 99 1012.5
20260509023012 49 232 0.0 0.0 0.05 0.08 0.08 99 1012.4
20260509022508 49 232 0.0 0.0 0.05 0.08 0.08 99 1012.3
20260509022006 49 232 0.0 0.0 0.00 0.07 0.07 99 1012.4
20260509021503 48 232 0.0 0.0 0.07 0.07 0.07 99 1012.4
20260509020959 48 232 0.0 0.0 0.07 0.07 0.07 99 1011.9
20260509020458 48 232 0.0 0.0 0.00 0.06 0.06 99 1012.1
20260509015954 48 232 0.0 0.0 0.00 0.06 0.06 99 1011.5
20260509015453 48 232 0.0 0.0 0.00 0.06 0.06 99 1012.0
20260509014950 48 232 0.0 0.0 0.00 0.06 0.06 99 1011.6
20260509014447 48 232 0.0 0.0 0.00 0.06 0.06 99 1011.7
20260509013943 48 232 0.0 0.0 0.00 0.06 0.06 99 1011.6
20260509013440 48 232 0.0 0.0 0.00 0.06 0.06 99 1011.7
20260509012936 48 232 0.0 0.0 0.00 0.06 0.06 99 1011.7
20260509012432 48 232 0.0 0.0 0.00 0.06 0.06 99 1011.6
20260509011929 49 232 0.0 0.0 0.00 0.06 0.06 99 1011.4
20260509011427 48 232 0.0 0.0 0.00 0.06 0.06 99 1011.4
20260509010925 48 232 0.0 0.0 0.00 0.06 0.06 99 1011.2
20260509010422 48 232 0.0 0.0 0.00 0.06 0.06 99 1011.1
20260509005918 49 232 0.0 0.0 0.00 0.06 0.06 99 1011.2
20260509005417 49 232 0.0 0.0 0.00 0.06 0.06 99 1011.0
20260509004916 48 232 0.0 0.0 0.00 0.06 0.06 99 1011.3
20260509004413 49 232 0.0 0.0 0.00 0.06 0.06 99 1011.4
20260509003911 49 232 0.0 0.0 0.00 0.06 0.06 99 1011.1
20260509003409 49 232 0.0 0.0 0.00 0.06 0.06 99 1011.2
20260509002905 49 232 0.0 0.0 0.00 0.06 0.06 99 1011.3
20260509002403 49 232 0.0 0.0 0.00 0.06 0.06 99 1011.1
20260509001901 49 232 0.0 0.0 0.00 0.06 0.06 99 1011.1
20260509001356 49 232 0.0 0.0 0.00 0.06 0.06 99 1010.9
20260509000854 49 232 0.0 0.0 0.00 0.06 0.06 99 1010.8
20260509000352 49 232 0.0 0.0 0.00 0.06 0.06 98 1010.9
20260508235848 49 232 0.0 0.0 0.00 0.06 0.06 98 1010.8
20260508235345 49 232 0.0 0.0 0.00 0.06 0.06 98 1010.7
20260508234842 50 232 0.0 0.0 0.00 0.06 0.06 98 1010.7
20260508234338 50 232 0.0 0.0 0.05 0.06 0.06 98 1010.8
20260508233837 50 232 0.0 0.0 0.05 0.06 0.06 97 1010.7
20260508233336 50 232 0.0 0.0 0.00 0.05 0.05 96 1010.7
20260508232832 50 232 0.0 0.0 0.00 0.05 0.05 96 1011.0
20260508232329 50 232 0.0 0.0 0.00 0.05 0.05 95 1011.3
20260508231827 50 232 0.0 0.0 0.00 0.05 0.05 94 1011.2
20260508231323 50 232 0.0 0.0 0.00 0.05 0.05 93 1011.0
20260508230820 50 232 0.0 0.0 0.00 0.05 0.05 94 1011.1
20260508230316 51 232 0.0 0.0 0.00 0.05 0.05 95 1011.0
20260508225814 51 232 0.0 0.0 0.00 0.05 0.05 96 1011.2
20260508225310 51 245 0.0 0.0 0.00 0.05 0.05 97 1011.1
20260508224808 51 245 0.0 0.0 0.00 0.05 0.05 96 1011.1
20260508224305 51 245 0.0 0.0 0.00 0.05 0.05 96 1011.0
20260508223803 51 245 0.0 0.0 0.00 0.05 0.05 95 1011.2
20260508223300 51 245 0.0 0.0 0.00 0.05 0.05 94 1011.4
20260508222758 51 245 0.0 0.0 0.00 0.05 0.05 93 1011.3
20260508222255 51 245 0.0 0.0 0.00 0.05 0.05 93 1011.3
20260508221751 51 245 0.0 0.0 0.00 0.05 0.05 94 1011.2
20260508221247 51 245 0.0 0.0 0.00 0.05 0.05 95 1011.3
20260508220743 51 245 0.0 0.0 0.00 0.05 0.05 96 1011.4
20260508220240 51 245 0.0 0.0 0.07 0.05 0.05 96 1011.6
20260508215736 51 245 0.0 0.0 0.07 0.05 0.05 96 1011.7
20260508215233 51 245 0.0 0.0 0.00 0.04 0.04 96 1011.6
20260508214730 51 245 0.0 0.0 0.05 0.04 0.04 95 1011.6
20260508214228 51 245 0.0 0.0 0.05 0.04 0.04 94 1011.6
20260508213724 51 245 0.0 0.0 0.00 0.03 0.03 93 1011.6
20260508213220 51 245 0.0 0.0 0.07 0.03 0.03 92 1011.6
20260508212717 51 245 0.0 0.0 0.07 0.03 0.03 91 1011.4
20260508212213 51 245 0.0 0.0 0.00 0.02 0.02 91 1011.4
20260508211709 51 245 0.0 0.0 0.00 0.02 0.02 90 1011.3
20260508211205 51 245 0.0 0.0 0.00 0.02 0.02 90 1011.4
20260508210703 52 245 0.0 0.0 0.00 0.02 0.02 89 1011.1
20260508210200 52 245 0.0 0.0 0.00 0.02 0.02 87 1011.4
20260508205656 52 246 0.0 0.0 0.07 0.02 0.02 87 1011.0
20260508205153 53 244 0.0 0.0 0.07 0.02 0.02 84 1011.2
20260508204649 53 234 0.0 0.0 0.00 0.01 0.01 86 1011.2
20260508204145 52 254 0.9 1.7 0.00 0.01 0.01 82 1011.5
20260508203642 52 230 0.0 1.7 0.00 0.01 0.01 84 1011.3
20260508203138 52 234 0.0 0.0 0.05 0.01 0.01 82 1011.5
20260508202634 53 235 0.0 0.0 0.05 0.01 0.01 79 1011.6
20260508202131 53 227 0.0 0.0 0.00 0.00 0.00 79 1011.6
20260508201628 53 240 0.0 0.9 0.00 0.00 0.00 78 1011.7
20260508201125 53 232 0.0 0.0 0.00 0.00 0.00 77 1011.7
20260508200622 53 250 0.0 1.7 0.00 0.00 0.00 76 1011.6
20260508200117 54 230 0.9 1.7 0.00 0.00 0.00 75 1011.7
20260508195614 54 228 1.7 1.7 0.00 0.00 0.00 74 1011.7
20260508195111 54 235 0.0 1.7 0.00 0.00 0.00 73 1012.0
20260508194607 55 218 1.7 2.6 0.00 0.00 0.00 73 1012.2
20260508194105 55 279 1.7 5.2 0.00 0.00 0.00 69 1012.1
20260508193601 56 207 4.3 6.1 0.00 0.00 0.00 68 1012.0
20260508193058 56 224 0.0 1.7 0.00 0.00 0.00 67 1012.1
20260508192554 57 190 1.7 6.1 0.00 0.00 0.00 65 1012.2
20260508192052 57 197 3.5 3.5 0.00 0.00 0.00 65 1012.0
20260508191548 58 237 0.0 9.6 0.00 0.00 0.00 62 1012.0
20260508191045 58 221 0.9 3.5 0.00 0.00 0.00 64 1012.0
20260508190542 58 222 0.9 3.5 0.00 0.00 0.00 66 1011.7
20260508190039 58 220 1.7 3.5 0.00 0.00 0.00 64 1011.9